date,time,SUV Intensity [MED/Hr],UV Index,Daily total [MED],Since Last [MED]
02/10/2022,00:01:02,0.000,0.0,0.0,0.0
02/10/2022,00:02:01,-0.000,0.0,0.0,0.0
02/10/2022,00:03:01,0.000,0.0,0.0,0.0
02/10/2022,00:04:02,-0.001,0.0,0.0,0.0
02/10/2022,00:05:02,0.000,0.0,0.0,0.0
02/10/2022,00:06:01,0.000,0.0,0.0,0.0
02/10/2022,00:07:02,-0.001,0.0,0.0,0.0
02/10/2022,00:08:01,0.000,0.0,0.0,0.0
02/10/2022,00:09:02,-0.001,0.0,0.0,0.0
02/10/2022,00:10:02,0.001,0.0,0.0,0.0
02/10/2022,00:11:02,0.001,0.0,0.0,0.0
02/10/2022,00:12:01,0.001,0.0,0.0,0.0
02/10/2022,00:13:02,0.000,0.0,0.0,0.0
02/10/2022,00:14:01,-0.000,0.0,0.0,0.0
02/10/2022,00:15:02,0.001,0.0,0.0,0.0
02/10/2022,00:16:01,0.000,0.0,0.0,0.0
02/10/2022,00:17:01,0.001,0.0,0.0,0.0
02/10/2022,00:18:02,0.000,0.0,0.0,0.0
02/10/2022,00:19:04,0.000,0.0,0.0,0.0
02/10/2022,00:20:02,0.000,0.0,0.0,0.0
02/10/2022,00:21:01,0.000,0.0,0.0,0.0
02/10/2022,00:22:02,-0.000,0.0,0.0,0.0
02/10/2022,00:23:02,0.000,0.0,0.0,0.0
02/10/2022,00:24:01,-0.001,0.0,0.0,0.0
02/10/2022,00:25:01,0.000,0.0,0.0,0.0
02/10/2022,00:26:02,0.000,0.0,0.0,0.0
02/10/2022,00:27:02,0.000,0.0,0.0,0.0
02/10/2022,00:28:01,-0.001,0.0,0.0,0.0
02/10/2022,00:29:01,0.001,0.0,0.0,0.0
02/10/2022,00:30:02,0.000,0.0,0.0,0.0
02/10/2022,00:31:01,0.001,0.0,0.0,0.0
02/10/2022,00:32:01,0.000,0.0,0.0,0.0
02/10/2022,00:33:03,-0.000,0.0,0.0,0.0
02/10/2022,00:34:02,0.000,0.0,0.0,0.0
02/10/2022,00:35:02,0.000,0.0,0.0,0.0
02/10/2022,00:36:02,-0.000,0.0,0.0,0.0
02/10/2022,00:37:02,0.000,0.0,0.0,0.0
02/10/2022,00:38:02,0.000,0.0,0.0,0.0
02/10/2022,00:39:01,0.000,0.0,0.0,0.0
02/10/2022,00:40:01,-0.001,0.0,0.0,0.0
02/10/2022,00:41:02,0.000,0.0,0.0,0.0
02/10/2022,00:42:02,0.000,0.0,0.0,0.0
02/10/2022,00:43:02,-0.001,0.0,0.0,0.0
02/10/2022,00:44:02,-0.001,0.0,0.0,0.0
02/10/2022,00:45:01,0.000,0.0,0.0,0.0
02/10/2022,00:46:02,0.000,0.0,0.0,0.0
02/10/2022,00:47:02,0.001,0.0,0.0,0.0
02/10/2022,00:48:02,0.000,0.0,0.0,0.0
02/10/2022,00:49:02,0.000,0.0,0.0,0.0
02/10/2022,00:50:02,0.000,0.0,0.0,0.0
02/10/2022,00:51:01,0.000,0.0,0.0,0.0
02/10/2022,00:52:01,0.001,0.0,0.0,0.0
02/10/2022,00:53:02,-0.001,0.0,0.0,0.0
02/10/2022,00:54:02,-0.001,0.0,0.0,0.0
02/10/2022,00:55:02,0.000,0.0,0.0,0.0
02/10/2022,00:56:02,0.000,0.0,0.0,0.0
02/10/2022,00:57:02,0.000,0.0,0.0,0.0
02/10/2022,00:58:01,0.000,0.0,0.0,0.0
02/10/2022,00:59:02,0.000,0.0,0.0,0.0
02/10/2022,01:00:02,0.000,0.0,0.0,0.0
02/10/2022,01:01:02,-0.000,0.0,0.0,0.0
02/10/2022,01:02:02,0.001,0.0,0.0,0.0
02/10/2022,01:03:02,0.000,0.0,0.0,0.0
02/10/2022,01:04:02,-0.001,0.0,0.0,0.0
02/10/2022,01:05:02,0.001,0.0,0.0,0.0
02/10/2022,01:06:02,0.000,0.0,0.0,0.0
02/10/2022,01:07:02,0.000,0.0,0.0,0.0
02/10/2022,01:08:02,0.001,0.0,0.0,0.0
02/10/2022,01:09:02,0.000,0.0,0.0,0.0
02/10/2022,01:10:02,0.000,0.0,0.0,0.0
02/10/2022,01:11:02,0.000,0.0,0.0,0.0
02/10/2022,01:12:02,-0.000,0.0,0.0,0.0
02/10/2022,01:13:01,0.000,0.0,0.0,0.0
02/10/2022,01:14:02,-0.001,0.0,0.0,0.0
02/10/2022,01:15:02,0.000,0.0,0.0,0.0
02/10/2022,01:16:02,-0.000,0.0,0.0,0.0
02/10/2022,01:17:02,0.000,0.0,0.0,0.0
02/10/2022,01:18:01,0.000,0.0,0.0,0.0
02/10/2022,01:19:02,0.001,0.0,0.0,0.0
02/10/2022,01:20:02,-0.001,0.0,0.0,0.0
02/10/2022,01:21:01,-0.000,0.0,0.0,0.0
02/10/2022,01:22:02,-0.001,0.0,0.0,0.0
02/10/2022,01:23:02,-0.000,0.0,0.0,0.0
02/10/2022,01:24:01,-0.001,0.0,0.0,0.0
02/10/2022,01:25:02,-0.001,0.0,0.0,0.0
02/10/2022,01:26:02,-0.001,0.0,0.0,0.0
02/10/2022,01:27:01,0.001,0.0,0.0,0.0
02/10/2022,01:28:01,0.000,0.0,0.0,0.0
02/10/2022,01:29:02,0.000,0.0,0.0,0.0
02/10/2022,01:30:02,-0.000,0.0,0.0,0.0
02/10/2022,01:31:02,0.000,0.0,0.0,0.0
02/10/2022,01:32:02,0.000,0.0,0.0,0.0
02/10/2022,01:33:01,0.000,0.0,0.0,0.0
02/10/2022,01:34:02,0.001,0.0,0.0,0.0
02/10/2022,01:35:02,-0.000,0.0,0.0,0.0
02/10/2022,01:36:01,0.000,0.0,0.0,0.0
02/10/2022,01:37:01,0.000,0.0,0.0,0.0
02/10/2022,01:38:02,0.000,0.0,0.0,0.0
02/10/2022,01:39:01,-0.001,0.0,0.0,0.0
02/10/2022,01:40:02,0.002,0.0,0.0,0.0
02/10/2022,01:41:02,0.001,0.0,0.0,0.0
02/10/2022,01:42:02,0.000,0.0,0.0,0.0
02/10/2022,01:43:02,-0.001,0.0,0.0,0.0
02/10/2022,01:44:02,-0.000,0.0,0.0,0.0
02/10/2022,01:45:01,-0.001,0.0,0.0,0.0
02/10/2022,01:46:02,0.000,0.0,0.0,0.0
02/10/2022,01:47:02,0.000,0.0,0.0,0.0
02/10/2022,01:48:01,-0.000,0.0,0.0,0.0
02/10/2022,01:49:02,0.000,0.0,0.0,0.0
02/10/2022,01:50:02,0.000,0.0,0.0,0.0
02/10/2022,01:51:02,0.000,0.0,0.0,0.0
02/10/2022,01:52:02,0.000,0.0,0.0,0.0
02/10/2022,01:53:02,0.000,0.0,0.0,0.0
02/10/2022,01:54:02,0.000,0.0,0.0,0.0
02/10/2022,01:55:02,0.001,0.0,0.0,0.0
02/10/2022,01:56:02,0.000,0.0,0.0,0.0
02/10/2022,01:57:02,0.000,0.0,0.0,0.0
02/10/2022,01:58:02,-0.001,0.0,0.0,0.0
02/10/2022,01:59:01,0.000,0.0,0.0,0.0
02/10/2022,02:00:02,0.000,0.0,0.0,0.0
02/10/2022,02:01:02,0.001,0.0,0.0,0.0
02/10/2022,02:02:02,0.000,0.0,0.0,0.0
02/10/2022,02:03:01,0.001,0.0,0.0,0.0
02/10/2022,02:04:01,0.000,0.0,0.0,0.0
02/10/2022,02:05:02,-0.000,0.0,0.0,0.0
02/10/2022,02:06:02,0.001,0.0,0.0,0.0
02/10/2022,02:07:02,0.000,0.0,0.0,0.0
02/10/2022,02:08:02,0.001,0.0,0.0,0.0
02/10/2022,02:09:02,0.000,0.0,0.0,0.0
02/10/2022,02:10:02,0.000,0.0,0.0,0.0
02/10/2022,02:11:02,0.001,0.0,0.0,0.0
02/10/2022,02:12:02,-0.001,0.0,0.0,0.0
02/10/2022,02:13:02,0.000,0.0,0.0,0.0
02/10/2022,02:14:02,0.000,0.0,0.0,0.0
02/10/2022,02:15:02,0.000,0.0,0.0,0.0
02/10/2022,02:16:02,0.000,0.0,0.0,0.0
02/10/2022,02:17:02,0.001,0.0,0.0,0.0
02/10/2022,02:18:02,0.000,0.0,0.0,0.0
02/10/2022,02:19:02,0.000,0.0,0.0,0.0
02/10/2022,02:20:02,0.001,0.0,0.0,0.0
02/10/2022,02:21:02,0.001,0.0,0.0,0.0
02/10/2022,02:22:02,-0.000,0.0,0.0,0.0
02/10/2022,02:23:01,0.000,0.0,0.0,0.0
02/10/2022,02:24:02,0.001,0.0,0.0,0.0
02/10/2022,02:25:02,-0.000,0.0,0.0,0.0
02/10/2022,02:26:02,0.000,0.0,0.0,0.0
02/10/2022,02:27:02,0.000,0.0,0.0,0.0
02/10/2022,02:28:02,0.000,0.0,0.0,0.0
02/10/2022,02:29:02,0.000,0.0,0.0,0.0
02/10/2022,02:30:02,0.000,0.0,0.0,0.0
02/10/2022,02:31:02,0.000,0.0,0.0,0.0
02/10/2022,02:32:01,0.000,0.0,0.0,0.0
02/10/2022,02:33:02,0.000,0.0,0.0,0.0
02/10/2022,02:34:02,0.001,0.0,0.0,0.0
02/10/2022,02:35:02,0.000,0.0,0.0,0.0
02/10/2022,02:36:02,0.000,0.0,0.0,0.0
02/10/2022,02:37:02,0.000,0.0,0.0,0.0
02/10/2022,02:38:02,0.000,0.0,0.0,0.0
02/10/2022,02:39:02,0.000,0.0,0.0,0.0
02/10/2022,02:40:01,0.000,0.0,0.0,0.0
02/10/2022,02:41:02,0.000,0.0,0.0,0.0
02/10/2022,02:42:03,0.000,0.0,0.0,0.0
02/10/2022,02:43:01,0.000,0.0,0.0,0.0
02/10/2022,02:44:02,0.000,0.0,0.0,0.0
02/10/2022,02:45:02,-0.000,0.0,0.0,0.0
02/10/2022,02:46:01,0.000,0.0,0.0,0.0
02/10/2022,02:47:02,0.000,0.0,0.0,0.0
02/10/2022,02:48:02,0.001,0.0,0.0,0.0
02/10/2022,02:49:02,0.000,0.0,0.0,0.0
02/10/2022,02:50:02,0.001,0.0,0.0,0.0
02/10/2022,02:51:02,-0.000,0.0,0.0,0.0
02/10/2022,02:52:02,0.001,0.0,0.0,0.0
02/10/2022,02:53:02,-0.000,0.0,0.0,0.0
02/10/2022,02:54:02,0.000,0.0,0.0,0.0
02/10/2022,02:55:02,0.001,0.0,0.0,0.0
02/10/2022,02:56:02,0.000,0.0,0.0,0.0
02/10/2022,02:57:02,0.000,0.0,0.0,0.0
02/10/2022,02:58:02,0.000,0.0,0.0,0.0
02/10/2022,02:59:02,-0.000,0.0,0.0,0.0
02/10/2022,03:00:01,0.000,0.0,0.0,0.0
02/10/2022,03:01:02,0.000,0.0,0.0,0.0
02/10/2022,03:02:02,0.000,0.0,0.0,0.0
02/10/2022,03:03:02,0.000,0.0,0.0,0.0
02/10/2022,03:04:02,0.001,0.0,0.0,0.0
02/10/2022,03:05:02,-0.000,0.0,0.0,0.0
02/10/2022,03:06:02,0.000,0.0,0.0,0.0
02/10/2022,03:07:02,0.000,0.0,0.0,0.0
02/10/2022,03:08:02,0.000,0.0,0.0,0.0
02/10/2022,03:09:04,-0.001,0.0,0.0,0.0
02/10/2022,03:10:02,0.000,0.0,0.0,0.0
02/10/2022,03:11:02,0.000,0.0,0.0,0.0
02/10/2022,03:12:02,0.000,0.0,0.0,0.0
02/10/2022,03:13:02,0.001,0.0,0.0,0.0
02/10/2022,03:14:02,0.000,0.0,0.0,0.0
02/10/2022,03:15:02,0.000,0.0,0.0,0.0
02/10/2022,03:16:02,0.000,0.0,0.0,0.0
02/10/2022,03:17:02,-0.000,0.0,0.0,0.0
02/10/2022,03:18:02,0.001,0.0,0.0,0.0
02/10/2022,03:19:02,0.000,0.0,0.0,0.0
02/10/2022,03:20:02,-0.000,0.0,0.0,0.0
02/10/2022,03:21:02,0.000,0.0,0.0,0.0
02/10/2022,03:22:02,0.000,0.0,0.0,0.0
02/10/2022,03:23:02,0.000,0.0,0.0,0.0
02/10/2022,03:24:02,0.001,0.0,0.0,0.0
02/10/2022,03:25:02,-0.000,0.0,0.0,0.0
02/10/2022,03:26:02,0.000,0.0,0.0,0.0
02/10/2022,03:27:02,0.001,0.0,0.0,0.0
02/10/2022,03:28:02,0.001,0.0,0.0,0.0
02/10/2022,03:29:02,0.001,0.0,0.0,0.0
02/10/2022,03:30:02,-0.000,0.0,0.0,0.0
02/10/2022,03:31:02,0.001,0.0,0.0,0.0
02/10/2022,03:32:02,0.000,0.0,0.0,0.0
02/10/2022,03:33:02,0.000,0.0,0.0,0.0
02/10/2022,03:34:02,0.000,0.0,0.0,0.0
02/10/2022,03:35:02,0.000,0.0,0.0,0.0
02/10/2022,03:36:02,-0.000,0.0,0.0,0.0
02/10/2022,03:37:02,-0.000,0.0,0.0,0.0
02/10/2022,03:38:02,0.001,0.0,0.0,0.0
02/10/2022,03:39:02,0.000,0.0,0.0,0.0
02/10/2022,03:40:02,-0.000,0.0,0.0,0.0
02/10/2022,03:41:02,0.000,0.0,0.0,0.0
02/10/2022,03:42:02,0.000,0.0,0.0,0.0
02/10/2022,03:43:02,0.000,0.0,0.0,0.0
02/10/2022,03:44:02,-0.000,0.0,0.0,0.0
02/10/2022,03:45:02,-0.001,0.0,0.0,0.0
02/10/2022,03:46:02,0.001,0.0,0.0,0.0
02/10/2022,03:47:02,0.000,0.0,0.0,0.0
02/10/2022,03:48:02,0.000,0.0,0.0,0.0
02/10/2022,03:49:02,0.001,0.0,0.0,0.0
02/10/2022,03:50:02,0.000,0.0,0.0,0.0
02/10/2022,03:51:02,-0.000,0.0,0.0,0.0
02/10/2022,03:52:02,0.001,0.0,0.0,0.0
02/10/2022,03:53:02,-0.000,0.0,0.0,0.0
02/10/2022,03:54:02,0.001,0.0,0.0,0.0
02/10/2022,03:55:02,0.000,0.0,0.0,0.0
02/10/2022,03:56:02,0.001,0.0,0.0,0.0
02/10/2022,03:57:02,0.001,0.0,0.0,0.0
02/10/2022,03:58:02,0.000,0.0,0.0,0.0
02/10/2022,03:59:02,0.000,0.0,0.0,0.0
02/10/2022,04:00:02,-0.000,0.0,0.0,0.0
02/10/2022,04:01:03,0.001,0.0,0.0,0.0
02/10/2022,04:02:02,0.000,0.0,0.0,0.0
02/10/2022,04:03:02,0.001,0.0,0.0,0.0
02/10/2022,04:04:02,0.001,0.0,0.0,0.0
02/10/2022,04:05:02,0.001,0.0,0.0,0.0
02/10/2022,04:06:02,0.000,0.0,0.0,0.0
02/10/2022,04:07:02,0.000,0.0,0.0,0.0
02/10/2022,04:08:02,0.000,0.0,0.0,0.0
02/10/2022,04:09:02,0.001,0.0,0.0,0.0
02/10/2022,04:10:02,0.000,0.0,0.0,0.0
02/10/2022,04:11:02,0.000,0.0,0.0,0.0
02/10/2022,04:12:02,0.000,0.0,0.0,0.0
02/10/2022,04:13:02,0.000,0.0,0.0,0.0
02/10/2022,04:14:02,0.000,0.0,0.0,0.0
02/10/2022,04:15:02,0.000,0.0,0.0,0.0
02/10/2022,04:16:02,0.001,0.0,0.0,0.0
02/10/2022,04:17:02,0.000,0.0,0.0,0.0
02/10/2022,04:18:02,0.000,0.0,0.0,0.0
02/10/2022,04:19:02,-0.000,0.0,0.0,0.0
02/10/2022,04:20:03,0.001,0.0,0.0,0.0
02/10/2022,04:21:02,0.001,0.0,0.0,0.0
02/10/2022,04:22:02,-0.000,0.0,0.0,0.0
02/10/2022,04:23:02,0.000,0.0,0.0,0.0
02/10/2022,04:24:03,0.001,0.0,0.0,0.0
02/10/2022,04:25:02,0.001,0.0,0.0,0.0
02/10/2022,04:26:02,0.002,0.0,0.0,0.0
02/10/2022,04:27:02,0.001,0.0,0.0,0.0
02/10/2022,04:28:03,0.000,0.0,0.0,0.0
02/10/2022,04:29:02,0.001,0.0,0.0,0.0
02/10/2022,04:30:02,0.001,0.0,0.0,0.0
02/10/2022,04:31:02,0.000,0.0,0.0,0.0
02/10/2022,04:32:02,-0.000,0.0,0.0,0.0
02/10/2022,04:33:02,0.001,0.0,0.0,0.0
02/10/2022,04:34:02,0.001,0.0,0.0,0.0
02/10/2022,04:35:02,0.001,0.0,0.0,0.0
02/10/2022,04:36:02,0.001,0.0,0.0,0.0
02/10/2022,04:37:02,0.001,0.0,0.0,0.0
02/10/2022,04:38:02,-0.000,0.0,0.0,0.0
02/10/2022,04:39:02,-0.001,0.0,0.0,0.0
02/10/2022,04:40:02,0.001,0.0,0.0,0.0
02/10/2022,04:41:02,0.001,0.0,0.0,0.0
02/10/2022,04:42:02,0.001,0.0,0.0,0.0
02/10/2022,04:43:02,0.000,0.0,0.0,0.0
02/10/2022,04:44:02,-0.000,0.0,0.0,0.0
02/10/2022,04:45:02,0.000,0.0,0.0,0.0
02/10/2022,04:46:02,0.001,0.0,0.0,0.0
02/10/2022,04:47:02,0.000,0.0,0.0,0.0
02/10/2022,04:48:02,0.000,0.0,0.0,0.0
02/10/2022,04:49:02,0.001,0.0,0.0,0.0
02/10/2022,04:50:02,0.000,0.0,0.0,0.0
02/10/2022,04:51:02,0.001,0.0,0.0,0.0
02/10/2022,04:52:02,0.001,0.0,0.0,0.0
02/10/2022,04:53:03,0.000,0.0,0.0,0.0
02/10/2022,04:54:02,0.001,0.0,0.0,0.0
02/10/2022,04:55:02,0.001,0.0,0.0,0.0
02/10/2022,04:56:02,0.001,0.0,0.0,0.0
02/10/2022,04:57:03,0.001,0.0,0.0,0.0
02/10/2022,04:58:02,-0.000,0.0,0.0,0.0
02/10/2022,04:59:02,-0.000,0.0,0.0,0.0
02/10/2022,05:00:03,0.002,0.0,0.0,0.0
02/10/2022,05:01:02,0.001,0.0,0.0,0.0
02/10/2022,05:02:02,0.001,0.0,0.0,0.0
02/10/2022,05:03:03,0.000,0.0,0.0,0.0
02/10/2022,05:04:04,0.001,0.0,0.0,0.0
02/10/2022,05:05:02,0.001,0.0,0.0,0.0
02/10/2022,05:06:02,0.001,0.0,0.0,0.0
02/10/2022,05:07:03,0.001,0.0,0.0,0.0
02/10/2022,05:08:02,0.001,0.0,0.0,0.0
02/10/2022,05:09:02,0.001,0.0,0.0,0.0
02/10/2022,05:10:02,0.001,0.0,0.0,0.0
02/10/2022,05:11:02,0.001,0.0,0.0,0.0
02/10/2022,05:12:02,0.001,0.0,0.0,0.0
02/10/2022,05:13:02,0.000,0.0,0.0,0.0
02/10/2022,05:14:03,0.000,0.0,0.0,0.0
02/10/2022,05:15:02,0.000,0.0,0.0,0.0
02/10/2022,05:16:02,0.001,0.0,0.0,0.0
02/10/2022,05:17:03,0.001,0.0,0.0,0.0
02/10/2022,05:18:02,0.001,0.0,0.0,0.0
02/10/2022,05:19:02,0.000,0.0,0.0,0.0
02/10/2022,05:20:02,0.001,0.0,0.0,0.0
02/10/2022,05:21:03,0.000,0.0,0.0,0.0
02/10/2022,05:22:02,-0.000,0.0,0.0,0.0
02/10/2022,05:23:02,0.002,0.0,0.0,0.0
02/10/2022,05:24:02,0.000,0.0,0.0,0.0
02/10/2022,05:25:02,0.001,0.0,0.0,0.0
02/10/2022,05:26:03,0.001,0.0,0.0,0.0
02/10/2022,05:27:02,0.001,0.0,0.0,0.0
02/10/2022,05:28:02,0.002,0.0,0.0,0.0
02/10/2022,05:29:03,0.000,0.0,0.0,0.0
02/10/2022,05:30:02,0.001,0.0,0.0,0.0
02/10/2022,05:31:02,0.001,0.0,0.0,0.0
02/10/2022,05:32:02,-0.000,0.0,0.0,0.0
02/10/2022,05:33:02,0.001,0.0,0.0,0.0
02/10/2022,05:34:03,0.001,0.0,0.0,0.0
02/10/2022,05:35:02,0.001,0.0,0.0,0.0
02/10/2022,05:36:02,0.002,0.0,0.0,0.0
02/10/2022,05:37:02,0.001,0.0,0.0,0.0
02/10/2022,05:38:02,0.002,0.0,0.0,0.0
02/10/2022,05:39:02,0.001,0.0,0.0,0.0
02/10/2022,05:40:03,0.000,0.0,0.0,0.0
02/10/2022,05:41:02,0.001,0.0,0.0,0.0
02/10/2022,05:42:02,-0.000,0.0,0.0,0.0
02/10/2022,05:43:02,0.002,0.0,0.0,0.0
02/10/2022,05:44:02,0.001,0.0,0.0,0.0
02/10/2022,05:45:02,0.001,0.0,0.0,0.0
02/10/2022,05:46:02,0.001,0.0,0.0,0.0
02/10/2022,05:47:03,0.001,0.0,0.0,0.0
02/10/2022,05:48:02,0.001,0.0,0.0,0.0
02/10/2022,05:49:02,-0.000,0.0,0.0,0.0
02/10/2022,05:50:02,0.001,0.0,0.0,0.0
02/10/2022,05:51:03,0.000,0.0,0.0,0.0
02/10/2022,05:52:02,0.001,0.0,0.0,0.0
02/10/2022,05:53:03,0.000,0.0,0.0,0.0
02/10/2022,05:54:04,0.001,0.0,0.0,0.0
02/10/2022,05:55:03,0.001,0.0,0.0,0.0
02/10/2022,05:56:02,0.002,0.0,0.0,0.0
02/10/2022,05:57:02,0.002,0.0,0.0,0.0
02/10/2022,05:58:02,0.001,0.0,0.0,0.0
02/10/2022,05:59:02,0.000,0.0,0.0,0.0
02/10/2022,06:00:03,0.001,0.0,0.0,0.0
02/10/2022,06:01:02,0.000,0.0,0.0,0.0
02/10/2022,06:02:03,0.001,0.0,0.0,0.0
02/10/2022,06:03:02,0.001,0.0,0.0,0.0
02/10/2022,06:04:02,0.001,0.0,0.0,0.0
02/10/2022,06:05:03,0.001,0.0,0.0,0.0
02/10/2022,06:06:02,0.001,0.0,0.0,0.0
02/10/2022,06:07:02,0.003,0.0,0.0,0.0
02/10/2022,06:08:03,0.001,0.0,0.0,0.0
02/10/2022,06:09:02,0.002,0.0,0.0,0.0
02/10/2022,06:10:03,0.001,0.0,0.0,0.0
02/10/2022,06:11:02,0.002,0.0,0.0,0.0
02/10/2022,06:12:03,0.002,0.0,0.0,0.0
02/10/2022,06:13:02,0.001,0.0,0.0,0.0
02/10/2022,06:14:02,0.002,0.0,0.0,0.0
02/10/2022,06:15:03,0.001,0.0,0.0,0.0
02/10/2022,06:16:02,0.002,0.0,0.0,0.0
02/10/2022,06:17:02,0.002,0.0,0.0,0.0
02/10/2022,06:18:03,0.002,0.0,0.0,0.0
02/10/2022,06:19:02,0.003,0.0,0.0,0.0
02/10/2022,06:20:02,0.003,0.0,0.0,0.0
02/10/2022,06:21:02,0.003,0.0,0.0,0.0
02/10/2022,06:22:02,0.003,0.0,0.0,0.0
02/10/2022,06:23:02,0.003,0.0,0.0,0.0
02/10/2022,06:24:03,0.003,0.0,0.0,0.0
02/10/2022,06:25:02,0.003,0.0,0.0,0.0
02/10/2022,06:26:02,0.003,0.0,0.0,0.0
02/10/2022,06:27:03,0.003,0.0,0.0,0.0
02/10/2022,06:28:03,0.003,0.0,0.0,0.0
02/10/2022,06:29:02,0.003,0.0,0.0,0.0
02/10/2022,06:30:02,0.004,0.0,0.0,0.0
02/10/2022,06:31:02,0.004,0.0,0.0,0.0
02/10/2022,06:32:02,0.004,0.0,0.0,0.0
02/10/2022,06:33:03,0.004,0.0,0.0,0.0
02/10/2022,06:34:02,0.004,0.0,0.0,0.0
02/10/2022,06:35:02,0.005,0.0,0.0,0.0
02/10/2022,06:36:03,0.005,0.0,0.0,0.0
02/10/2022,06:37:03,0.005,0.0,0.0,0.0
02/10/2022,06:38:02,0.005,0.0,0.0,0.0
02/10/2022,06:39:02,0.005,0.0,0.0,0.0
02/10/2022,06:40:02,0.006,0.0,0.0,0.0
02/10/2022,06:41:03,0.006,0.0,0.0,0.0
02/10/2022,06:42:02,0.006,0.0,0.0,0.0
02/10/2022,06:43:02,0.006,0.0,0.0,0.0
02/10/2022,06:44:03,0.006,0.0,0.0,0.0
02/10/2022,06:45:02,0.006,0.0,0.0,0.0
02/10/2022,06:46:02,0.006,0.0,0.0,0.0
02/10/2022,06:47:03,0.006,0.0,0.0,0.0
02/10/2022,06:48:02,0.007,0.0,0.001,0.001
02/10/2022,06:49:02,0.008,0.0,0.001,0.0
02/10/2022,06:50:03,0.007,0.0,0.001,0.0
02/10/2022,06:51:02,0.008,0.0,0.001,0.0
02/10/2022,06:52:02,0.008,0.0,0.001,0.0
02/10/2022,06:53:02,0.009,0.0,0.001,0.0
02/10/2022,06:54:03,0.009,0.0,0.001,0.0
02/10/2022,06:55:02,0.010,0.0,0.001,0.0
02/10/2022,06:56:02,0.010,0.0,0.002,0.001
02/10/2022,06:57:03,0.010,0.0,0.002,0.0
02/10/2022,06:58:02,0.011,0.0,0.002,0.0
02/10/2022,06:59:02,0.011,0.0,0.002,0.0
02/10/2022,07:00:03,0.012,0.0,0.002,0.0
02/10/2022,07:01:02,0.013,0.0,0.003,0.001
02/10/2022,07:02:03,0.013,0.0,0.003,0.0
02/10/2022,07:03:02,0.014,0.0,0.003,0.0
02/10/2022,07:04:03,0.015,0.0,0.003,0.0
02/10/2022,07:05:02,0.013,0.0,0.003,0.0
02/10/2022,07:06:02,0.015,0.0,0.004,0.001
02/10/2022,07:07:03,0.015,0.0,0.004,0.0
02/10/2022,07:08:02,0.016,0.0,0.004,0.0
02/10/2022,07:09:02,0.016,0.0,0.004,0.0
02/10/2022,07:10:02,0.016,0.0,0.005,0.001
02/10/2022,07:11:02,0.016,0.0,0.005,0.0
02/10/2022,07:12:03,0.018,0.0,0.005,0.0
02/10/2022,07:13:02,0.017,0.0,0.006,0.001
02/10/2022,07:14:02,0.017,0.0,0.006,0.0
02/10/2022,07:15:03,0.019,0.0,0.006,0.0
02/10/2022,07:16:02,0.018,0.0,0.006,0.0
02/10/2022,07:17:02,0.020,0.0,0.007,0.001
02/10/2022,07:18:03,0.022,0.0,0.007,0.0
02/10/2022,07:19:02,0.023,0.0,0.007,0.0
02/10/2022,07:20:02,0.023,0.0,0.008,0.001
02/10/2022,07:21:02,0.024,0.0,0.008,0.0
02/10/2022,07:22:03,0.025,0.0,0.009,0.001
02/10/2022,07:23:02,0.028,0.0,0.009,0.0
02/10/2022,07:24:04,0.028,0.0,0.01,0.001
02/10/2022,07:25:03,0.029,0.0,0.01,0.0
02/10/2022,07:26:02,0.030,0.0,0.011,0.001
02/10/2022,07:27:02,0.029,0.0,0.011,0.0
02/10/2022,07:28:03,0.030,0.0,0.012,0.001
02/10/2022,07:29:02,0.032,0.0,0.012,0.0
02/10/2022,07:30:02,0.031,0.0,0.013,0.001
02/10/2022,07:31:03,0.032,0.0,0.013,0.0
02/10/2022,07:32:02,0.031,0.0,0.014,0.001
02/10/2022,07:33:02,0.032,0.0,0.014,0.0
02/10/2022,07:34:03,0.032,0.0,0.015,0.001
02/10/2022,07:35:02,0.031,0.0,0.015,0.0
02/10/2022,07:36:02,0.032,0.0,0.016,0.001
02/10/2022,07:37:02,0.033,0.0,0.016,0.0
02/10/2022,07:38:02,0.035,0.0,0.017,0.001
02/10/2022,07:39:02,0.035,0.0,0.017,0.0
02/10/2022,07:40:02,0.036,0.0,0.018,0.001
02/10/2022,07:41:02,0.037,0.0,0.019,0.001
02/10/2022,07:42:02,0.039,0.0,0.019,0.0
02/10/2022,07:43:02,0.041,0.0,0.02,0.001
02/10/2022,07:44:02,0.043,0.0,0.021,0.001
02/10/2022,07:45:02,0.045,0.0,0.021,0.0
02/10/2022,07:46:02,0.047,0.0,0.022,0.001
02/10/2022,07:47:03,0.049,0.0,0.023,0.001
02/10/2022,07:48:02,0.052,0.0,0.024,0.001
02/10/2022,07:49:02,0.053,0.0,0.025,0.001
02/10/2022,07:50:02,0.055,0.0,0.025,0.0
02/10/2022,07:51:03,0.057,0.0,0.026,0.001
02/10/2022,07:52:02,0.059,0.0,0.027,0.001
02/10/2022,07:53:03,0.062,0.0,0.028,0.001
02/10/2022,07:54:02,0.062,0.0,0.029,0.001
02/10/2022,07:55:02,0.064,0.0,0.03,0.001
02/10/2022,07:56:02,0.066,0.0,0.032,0.002
02/10/2022,07:57:03,0.066,0.0,0.033,0.001
02/10/2022,07:58:02,0.067,0.0,0.034,0.001
02/10/2022,07:59:03,0.069,0.0,0.035,0.001
02/10/2022,08:00:02,0.069,0.0,0.036,0.001
02/10/2022,08:01:02,0.072,0.0,0.037,0.001
02/10/2022,08:02:03,0.074,0.0,0.038,0.001
02/10/2022,08:03:03,0.076,0.0,0.04,0.002
02/10/2022,08:04:03,0.079,0.0,0.041,0.001
02/10/2022,08:05:02,0.083,0.0,0.042,0.001
02/10/2022,08:06:02,0.085,0.0,0.044,0.002
02/10/2022,08:07:03,0.088,0.0,0.045,0.001
02/10/2022,08:08:02,0.091,0.0,0.047,0.002
02/10/2022,08:09:02,0.093,0.0,0.048,0.001
02/10/2022,08:10:02,0.094,0.0,0.05,0.002
02/10/2022,08:11:03,0.096,0.0,0.051,0.001
02/10/2022,08:12:02,0.096,0.0,0.053,0.002
02/10/2022,08:13:03,0.096,0.0,0.054,0.001
02/10/2022,08:14:03,0.095,0.0,0.056,0.002
02/10/2022,08:15:02,0.094,0.0,0.058,0.002
02/10/2022,08:16:03,0.095,0.0,0.059,0.001
02/10/2022,08:17:02,0.094,0.0,0.061,0.002
02/10/2022,08:18:02,0.095,0.0,0.062,0.001
02/10/2022,08:19:03,0.096,0.0,0.064,0.002
02/10/2022,08:20:03,0.098,0.0,0.066,0.002
02/10/2022,08:21:02,0.099,0.0,0.067,0.001
02/10/2022,08:22:03,0.100,0.0,0.069,0.002
02/10/2022,08:23:03,0.103,0.0,0.07,0.001
02/10/2022,08:24:02,0.106,0.0,0.072,0.002
02/10/2022,08:25:02,0.110,0.0,0.074,0.002
02/10/2022,08:26:02,0.114,0.0,0.076,0.002
02/10/2022,08:27:02,0.118,0.0,0.078,0.002
02/10/2022,08:28:03,0.124,0.0,0.08,0.002
02/10/2022,08:29:02,0.130,0.0,0.082,0.002
02/10/2022,08:30:03,0.133,0.0,0.084,0.002
02/10/2022,08:31:03,0.139,0.0,0.086,0.002
02/10/2022,08:32:04,0.143,0.0,0.089,0.003
02/10/2022,08:33:04,0.147,0.0,0.091,0.002
02/10/2022,08:34:03,0.149,0.0,0.094,0.003
02/10/2022,08:35:02,0.151,0.0,0.096,0.002
02/10/2022,08:36:03,0.155,0.0,0.099,0.003
02/10/2022,08:37:03,0.155,0.0,0.101,0.002
02/10/2022,08:38:02,0.155,0.0,0.104,0.003
02/10/2022,08:39:03,0.156,0.0,0.106,0.002
02/10/2022,08:40:02,0.156,0.0,0.109,0.003
02/10/2022,08:41:02,0.156,0.0,0.112,0.003
02/10/2022,08:42:03,0.157,0.0,0.114,0.002
02/10/2022,08:43:02,0.159,0.0,0.117,0.003
02/10/2022,08:44:02,0.161,0.0,0.12,0.003
02/10/2022,08:45:03,0.164,0.0,0.122,0.002
02/10/2022,08:46:02,0.166,0.0,0.125,0.003
02/10/2022,08:47:03,0.171,0.0,0.128,0.003
02/10/2022,08:48:02,0.174,0.0,0.131,0.003
02/10/2022,08:49:02,0.180,0.0,0.134,0.003
02/10/2022,08:50:03,0.185,0.0,0.137,0.003
02/10/2022,08:51:03,0.189,0.0,0.14,0.003
02/10/2022,08:52:02,0.193,0.0,0.143,0.003
02/10/2022,08:53:02,0.199,0.0,0.146,0.003
02/10/2022,08:54:03,0.202,0.0,0.149,0.003
02/10/2022,08:55:02,0.207,0.0,0.153,0.004
02/10/2022,08:56:02,0.213,0.0,0.156,0.003
02/10/2022,08:57:02,0.219,1.0,0.16,0.004
02/10/2022,08:58:04,0.226,1.0,0.164,0.004
02/10/2022,08:59:03,0.232,1.0,0.168,0.004
02/10/2022,09:00:03,0.237,1.0,0.171,0.003
02/10/2022,09:01:03,0.242,1.0,0.176,0.005
02/10/2022,09:02:03,0.247,1.0,0.18,0.004
02/10/2022,09:03:02,0.251,1.0,0.184,0.004
02/10/2022,09:04:03,0.255,1.0,0.188,0.004
02/10/2022,09:05:02,0.259,1.0,0.192,0.004
02/10/2022,09:06:03,0.263,1.0,0.197,0.005
02/10/2022,09:07:02,0.265,1.0,0.201,0.004
02/10/2022,09:08:02,0.271,1.0,0.205,0.004
02/10/2022,09:09:03,0.274,1.0,0.21,0.005
02/10/2022,09:10:02,0.277,1.0,0.215,0.005
02/10/2022,09:11:02,0.279,1.0,0.219,0.004
02/10/2022,09:12:03,0.282,1.0,0.224,0.005
02/10/2022,09:13:02,0.284,1.0,0.229,0.005
02/10/2022,09:14:03,0.285,1.0,0.233,0.004
02/10/2022,09:15:02,0.287,1.0,0.238,0.005
02/10/2022,09:16:02,0.290,1.0,0.243,0.005
02/10/2022,09:17:03,0.292,1.0,0.248,0.005
02/10/2022,09:18:02,0.295,1.0,0.253,0.005
02/10/2022,09:19:03,0.300,1.0,0.258,0.005
02/10/2022,09:20:03,0.302,1.0,0.263,0.005
02/10/2022,09:21:02,0.305,1.0,0.268,0.005
02/10/2022,09:22:03,0.309,1.0,0.273,0.005
02/10/2022,09:23:02,0.315,1.0,0.278,0.005
02/10/2022,09:24:02,0.318,1.0,0.283,0.005
02/10/2022,09:25:03,0.322,1.0,0.289,0.006
02/10/2022,09:26:02,0.327,1.0,0.294,0.005
02/10/2022,09:27:02,0.330,1.0,0.299,0.005
02/10/2022,09:28:03,0.332,1.0,0.305,0.006
02/10/2022,09:29:02,0.334,1.0,0.311,0.006
02/10/2022,09:30:02,0.340,1.0,0.316,0.005
02/10/2022,09:31:03,0.345,1.0,0.322,0.006
02/10/2022,09:32:02,0.342,1.0,0.328,0.006
02/10/2022,09:33:03,0.342,1.0,0.333,0.005
02/10/2022,09:34:02,0.345,1.0,0.339,0.006
02/10/2022,09:35:02,0.349,1.0,0.345,0.006
02/10/2022,09:36:03,0.353,1.0,0.351,0.006
02/10/2022,09:37:02,0.357,1.0,0.356,0.005
02/10/2022,09:38:02,0.361,1.0,0.362,0.006
02/10/2022,09:39:03,0.362,1.0,0.368,0.006
02/10/2022,09:40:03,0.366,1.0,0.375,0.007
02/10/2022,09:41:03,0.368,1.0,0.381,0.006
02/10/2022,09:42:02,0.373,1.0,0.387,0.006
02/10/2022,09:43:03,0.377,1.0,0.393,0.006
02/10/2022,09:44:03,0.378,1.0,0.399,0.006
02/10/2022,09:45:03,0.380,1.0,0.406,0.007
02/10/2022,09:46:02,0.383,1.0,0.412,0.006
02/10/2022,09:47:03,0.384,1.0,0.418,0.006
02/10/2022,09:48:02,0.386,1.0,0.425,0.007
02/10/2022,09:49:02,0.387,1.0,0.431,0.006
02/10/2022,09:50:03,0.390,1.0,0.438,0.007
02/10/2022,09:51:02,0.396,1.0,0.444,0.006
02/10/2022,09:52:02,0.404,1.0,0.451,0.007
02/10/2022,09:53:03,0.411,1.0,0.458,0.007
02/10/2022,09:54:02,0.403,1.0,0.465,0.007
02/10/2022,09:55:02,0.396,1.0,0.471,0.006
02/10/2022,09:56:03,0.398,1.0,0.478,0.007
02/10/2022,09:57:02,0.392,1.0,0.484,0.006
02/10/2022,09:58:03,0.390,1.0,0.491,0.007
02/10/2022,09:59:03,0.391,1.0,0.497,0.006
02/10/2022,10:00:02,0.393,1.0,0.504,0.007
02/10/2022,10:01:03,0.397,1.0,0.511,0.007
02/10/2022,10:02:02,0.410,1.0,0.517,0.006
02/10/2022,10:03:02,0.411,1.0,0.524,0.007
02/10/2022,10:04:03,0.416,1.0,0.531,0.007
02/10/2022,10:05:03,0.408,1.0,0.538,0.007
02/10/2022,10:06:03,0.414,1.0,0.545,0.007
02/10/2022,10:07:02,0.420,1.0,0.552,0.007
02/10/2022,10:08:03,0.416,1.0,0.559,0.007